Date,TemperatureHighF,TemperatureAvgF,TemperatureLowF,DewpointHighF,DewpointAvgF,DewpointLowF,HumidityHigh,HumidityAvg,HumidityLow,PressureMaxIn,PressureMinIn,WindSpeedMaxMPH,WindSpeedAvgMPH,GustSpeedMaxMPH,PrecipitationSumIn
2013-4-1,65.1,51.9,36.6,44.9,38.7,31.4,84,62,46,29.98,29.86,16,4,16,0.00
2013-4-2,64.1,49.2,36.5,47.6,40.5,32.8,91,73,51,30.12,29.95,16,2,16,0.00
2013-4-3,63.0,49.9,38.8,42.7,38.9,33.3,88,68,43,30.13,29.99,20,3,20,0.00
2013-4-4,59.3,48.9,42.4,46.7,41.4,35.6,94,76,52,29.99,29.73,36,8,36,0.14
2013-4-5,54.7,46.2,41.6,46.4,40.6,37.1,93,81,63,29.93,29.82,33,9,33,0.18
2013-4-6,46.8,42.6,38.4,41.7,38.4,33.5,95,86,65,29.97,29.85,24,8,24,0.50
2013-4-7,46.9,40.1,34.4,40.7,33.6,26.0,95,79,52,29.88,29.62,38,13,38,0.16
2013-4-8,46.6,35.5,31.0,37.9,31.9,26.6,94,87,66,30.26,29.80,20,5,20,0.05
2013-4-9,52.1,38.5,28.4,36.3,29.3,22.8,90,71,48,30.38,30.23,12,3,12,0.01
2013-4-10,54.1,45.0,38.8,45.0,37.0,31.7,91,74,63,30.25,29.88,36,12,36,0.07
2013-4-11,46.6,39.7,31.9,35.0,31.2,27.3,85,72,54,30.16,30.05,20,6,20,0.00
2013-4-12,54.8,40.5,31.4,37.3,30.9,22.9,93,71,39,30.14,29.62,29,7,29,0.16
2013-4-13,39.2,35.8,31.9,37.2,27.6,21.3,94,72,56,29.91,29.59,40,19,40,0.28
2013-4-14,43.4,33.3,29.2,35.2,27.8,24.8,92,80,63,29.98,29.88,22,6,22,0.02
2013-4-15,41.9,33.7,27.0,27.7,24.0,18.3,93,69,45,30.07,29.86,23,10,23,0.00
2013-4-16,41.1,31.9,24.4,21.3,16.7,12.9,66,54,36,30.34,30.06,20,10,20,0.00
2013-4-17,47.3,35.3,24.7,24.2,18.5,14.1,72,51,34,30.45,30.34,18,6,18,0.00
2013-4-18,46.0,38.2,28.2,32.8,26.0,14.2,77,62,44,30.42,30.22,15,3,15,0.00
2013-4-19,45.6,42.6,38.8,42.9,39.7,33.1,94,90,79,30.22,29.99,22,7,22,0.22
2013-4-20,49.2,44.1,40.9,41.2,36.3,33.3,87,74,58,30.14,30.00,27,14,27,0.08
2013-4-21,50.9,40.9,32.9,41.2,34.6,30.8,93,78,61,30.20,30.03,22,8,22,0.16
2013-4-22,47.2,35.9,28.2,31.7,25.6,21.0,93,68,43,30.47,30.19,17,6,17,0.03
2013-4-23,53.0,39.0,27.5,31.3,24.4,19.4,84,58,31,30.44,30.24,13,3,13,0.00
2013-4-24,59.9,43.9,30.1,35.2,28.5,22.8,80,57,35,30.35,30.09,20,3,20,0.00
2013-4-25,64.2,54.2,40.9,39.4,33.6,28.3,72,47,33,30.09,29.93,23,6,23,0.00
2013-4-26,69.0,54.6,39.9,43.0,37.1,31.3,72,53,35,30.19,30.06,24,5,24,0.00
2013-4-27,65.6,55.3,45.8,40.6,34.8,31.0,69,47,31,30.12,29.98,40,13,40,0.00
2013-4-28,57.2,49.4,42.4,43.1,37.2,30.1,85,64,44,30.10,29.89,23,8,23,0.00
2013-4-29,48.4,42.9,33.0,40.1,30.9,17.3,88,63,39,30.02,29.75,39,16,39,0.14
2013-4-30,42.9,33.3,26.6,31.2,24.8,17.7,92,72,47,30.43,29.99,30,8,30,0.03